www.pogodaiklimat.ru

Погода и климат >> Архив погоды >> Монголия >> Тонхил


ПОГОДА в Тонхиле

  • Прогноз погоды в Тонхиле
  • Монитор погоды в Тонхиле

АРХИВ ПОГОДЫ в Тонхиле

Время (UTC), дата Ветер
(напр.,м/с)
 
Видим.   Явления Облачность Т
(С)
Тd
(С)
f
(%)
Тe
(С)
Тes
(С)
Комфортность P
(гПа)
Po
(гПа)
Тmin
(С)
Tmax
(С)
R
(мм)
R24
(мм)
S
(см)
03 9.09 штиль 0 50 км 9/8 1000 м
[Cu Sc Ac lent]
+11.0 -9.9 22 +11 +12 1016.5 779.1
06 9.09 Ю 3 50 км 9/5 1000 м
[Sc Ac As]
+16.8 -3.9 24 +17 +19 1009.5 777.8
09 9.09 ЮЗ 9
{14}
50 км 8/5 1000 м
[Cu med, cong Ac As Cc]
+18.8 -4.0 21 +18 +18 1006.0 776.5
12 9.09 ЮЗ 4
{14}
50 км 9/4 1000 м
[Sc diur, vesp Ac cast Cs]
+14.8 +0.6 38 +14 +14 1010.0 776.8 +19.5
15 9.09 СВ 8 н/о 8/3 1000 м
[Cu Sc Ac cast]
+10.7 +0.1 48 +7 +7 1014.7 777.5
18 9.09 штиль 0 н/о 3/0
[Ac cast]
+11.3 -4.4 33 +11 +11 1024.8 778.1
21 9.09 ЮЗ 6
{13}
н/о ясно +12.2 -4.9 30 +10 +10 1022.3 776.9
00 10.09 ЮЗ 6
{10}
50 км 6/3 1000 м
[Cu Sc Cs]
+11.6 -3.0 36 +9 +9 1014.0 777.3 +9.5
03 10.09 Ю 9
{14}
50 км 8/4 1000 м
[Cu Sc Cs]
+15.4 0.0 35 +14 +14 1018.6 776.5
06 10.09 Ю 7
{14}
50 км 6/3 1000 м
[Cu Sc Cs]
+17.2 +0.4 32 +16 +18 1006.8 776.0
09 10.09 ЮЗ 11
{13}
50 км 5/3 1000 м
[Cu Sc Ac lent]
+19.6 -1.5 24 +19 +19 1003.2 774.9
12 10.09 ЮЗ 9
{12}
50 км 6/4 1000 м
[Sc diur, vesp Ac lent]
+15.7 +0.3 35 +14 +14 1006.7 774.9 +20.3
15 10.09 штиль 0 н/о 8/8 1000 м
[Cu Sc]
+12.8 +1.2 45 +13 +13 1011.8 776.8
18 10.09 ЮВ 1 н/о 9/9 600 м
[Sc]
+10.6 +2.9 59 +11 +11 1014.0 776.9
21 10.09 ЮЗ 5 н/о 10/10 600 м
[Sc]
+8.4 +1.6 62 +5 +5 1015.8 776.6
00 11.09 СЗ 2 20 км 10/10 600 м
[Sc]
+6.4 -0.1 63 +4 +4 1013.5 777.2 +16.0
03 11.09 З 5
{10}
50 км 9/5 1000 м
[Cu Sc As op]
+7.4 +0.2 60 +4 +5 1019.1 778.4
06 11.09 Ю 4 20 км 10/10 600 м
[Sc]
+8.5 -1.0 51 +6 +6 1017.9 778.3
09 11.09 ЮЗ 3 20 км осадки на расстоянии 9/9 600 м
[Cu Sc]
+8.0 +0.5 59 +6 +6 1018.3 778.2
12 11.09 З 14
{15}
50 км 9/5 1000 м
[Cu Sc Ac lent Ci]
+5.5 -1.0 63 -1 -1 1020.8 778.3 +9.7
15 11.09 С 2
{14}
н/о 4/4 1000 м
[Cu Sc]
+2.8 -1.2 75 -0 -0 1024.9 779.3
18 11.09 С 3 н/о 5/3 1000 м
[Cu Sc Ac lent]
+1.2 -3.5 71 -3 -3 1026.9 779.6
21 11.09 С 6 н/о ясно 0.0 -5.2 68 -6 -6 1028.0 779.5
00 12.09 СЗ 5 50 км 3/3 1000 м
[Cu med, cong]
-0.6 -8.5 55 -6 -6 1024.1 779.8 -0.9
03 12.09 З 9
{10}
50 км 3/3 1000 м
[Cu Sc]
+7.6 -5.0 40 +3 +4 1015.5 780.2
06 12.09 З 13
{13}
50 км 6/6 1000 м
[Cu Sc]
+10.6 -6.3 30 +6 +6 1018.1 780.0
09 12.09 З 8
{17}
50 км 8/5 1000 м
[Cu Sc Ac lent]
+8.5 -6.9 33 +5 +5 1019.5 779.5
12 12.09 З 3
{13}
20 км осадки на расстоянии 9/9 600 м
[Cu Sc]
+3.3 -2.2 67 -0 -0 1025.8 780.4 +10.6
15 12.09 СВ 8
{12}
н/о {дождь} 8/8 600 м
[Sc]
+0.3 -1.0 91 -7 -7 1030.9 781.9
18 12.09 СВ 1
{12}
н/о {дождь} 3/3 1000 м
[Sc]
-1.6 -3.8 85 -4 -4 1032.9 781.9
21 12.09 С 5 н/о ясно -3.0 -7.9 69 -9 -9 1034.0 781.6
00 13.09 С 4 50 км ясно -2.5 -8.4 64 -8 -8 1033.3 781.5 -3.5 0.0
03 13.09 ЮВ 2 50 км ясно +3.7 -7.7 43 +2 +8 1025.3 780.3
06 13.09 ЮЗ 8
{10}
50 км ясно +11.9 -12.4 17 +9 +11 1015.0 778.6
09 13.09 ЮЗ 7
{11}
50 км 1/0
[Cs]
+10.8 -8.4 25 +8 +9 1015.2 777.9
12 13.09 З 8
{11}
50 км ясно +7.7 -15.2 18 +4 +4 1018.3 778.0 +13.5
15 13.09 З 3 н/о 3/0
[Ac cast]
+5.2 -16.0 20 +3 +3 1021.0 779.1
18 13.09 С 4
{12}
н/о 4/0
[Ac cast]
+2.9 -11.8 33 -1 -1 1024.5 779.1
21 13.09 СЗ 6 н/о 5/3 1000 м
[Cu Sc Ac cast]
+2.3 -11.6 35 -3 -3 1024.3 778.5
00 14.09 С 3 50 км 3/1 1000 м
[Cu Sc Ac cast]
+1.0 -11.7 38 -3 -2 1026.6 779.2 +0.4
03 14.09 СЗ 2 50 км 1/0
[Ci fib]
+7.8 -17.9 14 +7 +13 1014.2 779.1
06 14.09 З 5 50 км 4/3 1000 м
[Cu med, cong Ac lent]
+10.4 -13.9 17 +8 +12 1012.0 778.9
09 14.09 50 км н/о +10.2 -14.4 16 +8 +8 1012.0 778.8
12 14.09 СВ 8 50 км 9/9 1000 м
[Sc]
+8.9 -6.5 33 +5 +5 1018.9 779.4 +10.8
15 14.09 В 4 н/о 5/0
[Cs]
+5.7 -5.9 43 +3 +3 1024.1 780.9
18 14.09 С 3 н/о 3/0
[Cs]
+2.0 -7.6 49 -2 -2 1028.2 781.2
21 14.09 С 4 н/о 5/0
[Cs]
+0.6 -7.6 54 -4 -4 1029.0 780.7
00 15.09 С 4 50 км ясно 0.0 -7.3 58 -5 -5 1029.6 780.7 -0.5
03 15.09 Ю 1 50 км ясно +8.2 -6.7 34 +8 +16 1021.5 780.8
06 15.09 ЮЗ 2 50 км 3/3 1000 м
[Cu hum]
+12.0 -10.3 20 +12 +19 1017.2 780.3
09 15.09 ЮЗ 5
{11}
50 км 3/3 1000 м
[Cu hum]
+12.8 -9.6 20 +11 +13 1014.6 778.9
12 15.09 З 9
{10}
50 км ясно +9.9 -8.7 26 +6 +6 1017.6 779.1 +14.1
15 15.09 Ю 2 н/о ясно +5.7 -8.2 36 +4 +4 1022.6 779.8
18 15.09 С 5 н/о ясно +2.8 -8.0 45 -2 -2 1025.5 779.8
21 15.09 С 6 н/о ясно +2.2 -8.2 46 -3 -3 1025.7 779.5

 

Местоположение метеостанции Тонхил (Монголия): широта 46.32 долгота 93.90 высота над уровнем моря 2095 м.

В архиве по умолчанию представлена погода в Тонхиле за последнюю неделю. Архивные данные за месяц целиком и за предыдущие месяцы, начиная с января 2011 года, Вы можете получить, выбрав интересующий диапазон дат из раскрывающегося списка и нажав кнопку "Ввод!".


*Определитесь, кто Вы:
робот инопланетянин человек

Внимание! Время в таблицах - всемирное. Для получения местного времени необходимо прибавить поправку, которая равна 8 ч.

Смотрите также архив погоды в соседних городах и на ближайших метеорологических станциях:

Погода в Алтае (Монголия) (181 км)
Погода в Байтаге (Монголия) (188 км)
Погода в Жаргаланте (Монголия) (226 км)
Погода в Ургамале (Монголия) (247 км)
Погода в Ховде (Монголия) (258 км)
Погода в Улиастае (Монголия) (274 км)
Погода в Бейта Шан (Синьцзян-Уйгурский автономный район, Китай) (282 км)
Погода в Завхане (Монголия) (284 км)
Погода в Цэцэн-Ууле (Монголия) (315 км)
Погода в Наомаоху (Синьцзян-Уйгурский автономный район, Китай) (318 км)

Пояснения к столбцам:

Ветер - указаны скорость ветра в м/с - средняя за 10 мин, порывы в срок и между сроками (в фигурных скобках) и направление, откуда дует ветер: С - северный, СВ - северо-восточный, В - восточный, ЮВ - юго-восточный, Ю - южный, ЮЗ - юго-западный, З - западный, СЗ - северо-западный.
Видимость - горизонтальная дальность видимости в метрах или километрах. При видимости от 1 до 10 км при отсутствии осадков обычно наблюдается дымка, при ухудшении видимости до 1 км и менее - туман. В сухую погоду видимость может ухудшаться дымом, пылью или мглою.
Явления - указаны атмосферные явления, наблюдавшиеся в срок или в последний час перед сроком; фигурными скобками обозначены явления, наблюдавшиеся между сроками (за 1-3 часа до срока); квадратными скобками обозначены град или гололедные отложения с указанием их диаметра в мм.
Облачность - указаны через наклонную черту общая и нижняя облачность в баллах и высота нижней границы облаков в метрах; квадратными скобками обозначены формы облаков: Ci - перистые, Cs - перисто-слоистые, Cc - перисто-кучевые, Ac - высококучевые, As - высокослоистые, Sc - слоисто-кучевые, Ns - слоисто-дождевые, Cu - кучевые, Cb - кучево-дождевые. Подробнее классификацию облаков см. в Атласе облаков (PDF).
T - Температура воздуха - температура, измеренная на высоте 2 м над землей.
Td - Температура точки росы - температура, при понижении до которой содержащийся в воздухе водяной пар достигнет насыщения.
f - Относительная влажность воздуха - влажноcть воздуха, измеренная на высоте 2 м над землей.
Te - Эффективная температура - температура, которую ощущает одетый по сезону человек в тени. Характеристика душности погоды. При расчете учитывается влияние влажности воздуха и скорости ветра на теплоощущения человека.
Tes - Эффективная температура на солнце - температура, которую ощущает человек, с поправкой на солнечный нагрев. Характеристика знойности погоды. Зависит от высоты солнца над горизонтом, облачности и скорости ветра. Ночью, в пасмурную погоду, а также при ветре 12 м/с и более поправка равна нулю.
P - Атмосферное давление - приведенное к уровню моря атмосферное давление.
Po - Атмосферное давление - измеренное на уровне метеостанции атмосферное давление.
Tmin - Минимальная температура - минимум температуры воздуха на высоте 2 м над землей.
Tmax - Максимальная температура - максимум температуры воздуха на высоте 2 м над землей.
R - Количество осадков - Количество выпавших осадков за период времени, мм. При наведении курсора мыши на число - период времени, за который выпало указанное количество осадков.
R24 - Количество осадков - Количество выпавших осадков за 24 часа, мм.
S - Снежный покров - Высота снежного покрова, см. При наведении курсора мыши на число - состояние снежного покрова и степень покрытия местности в баллах.